Time,TemperatureF,DewpointF,PressureIn,WindDirection,WindDirectionDegrees,WindSpeedMPH,WindSpeedGustMPH,Humidity,HourlyPrecipIn,Conditions,Clouds,dailyrainin,SolarRadiationWatts/m^2,SoftwareType,DateUTC
2017-12-12 00:00:00,33.1,30.5,30.48,North,10,0.0,0.0,90,0.00,,,0.00,0,Wunderground v.1.15,2017-12-12 08:00:00,
2017-12-12 00:30:00,33.1,31.0,30.48,North,10,0.0,0.0,92,0.00,,,0.00,0,Wunderground v.1.15,2017-12-12 08:30:00,
2017-12-12 01:00:00,33.0,30.7,30.48,North,10,0.0,0.0,91,0.00,,,0.00,0,Wunderground v.1.15,2017-12-12 09:00:00,
2017-12-12 01:30:00,32.5,30.2,30.48,North,10,0.0,0.0,91,0.00,,,0.00,0,Wunderground v.1.15,2017-12-12 09:30:00,
2017-12-12 02:00:00,31.9,29.6,30.48,North,10,0.0,0.0,91,0.00,,,0.00,0,Wunderground v.1.15,2017-12-12 10:00:00,
2017-12-12 02:30:00,31.2,29.1,30.49,NNW,328,0.0,0.0,92,0.00,,,0.00,0,Wunderground v.1.15,2017-12-12 10:30:00,
2017-12-12 03:30:00,30.7,28.9,30.48,SW,232,0.0,0.0,93,0.00,,,0.00,0,Wunderground v.1.15,2017-12-12 11:30:00,
2017-12-12 04:00:00,30.6,29.1,30.47,West,264,0.0,0.0,94,0.00,,,0.00,0,Wunderground v.1.15,2017-12-12 12:00:00,
2017-12-12 04:30:00,30.5,29.0,30.47,WSW,250,0.0,0.0,94,0.00,,,0.00,0,Wunderground v.1.15,2017-12-12 12:30:00,
2017-12-12 05:00:00,30.2,28.7,30.47,WSW,250,0.0,0.0,94,0.00,,,0.00,0,Wunderground v.1.15,2017-12-12 13:00:00,
2017-12-12 05:30:00,29.8,28.3,30.47,WSW,250,0.0,0.0,94,0.00,,,0.00,0,Wunderground v.1.15,2017-12-12 13:30:00,
2017-12-12 06:00:00,29.9,28.6,30.46,WSW,250,0.0,0.0,95,0.00,,,0.00,0,Wunderground v.1.15,2017-12-12 14:00:00,
2017-12-12 06:30:00,30.0,28.7,30.47,WSW,250,0.0,0.0,95,0.00,,,0.00,0,Wunderground v.1.15,2017-12-12 14:30:00,
2017-12-12 07:00:00,29.7,28.4,30.47,WSW,250,0.0,0.0,95,0.00,,,0.00,0,Wunderground v.1.15,2017-12-12 15:00:00,
2017-12-12 07:30:00,29.2,27.9,30.47,WSW,250,0.0,0.0,95,0.00,,,0.00,0,Wunderground v.1.15,2017-12-12 15:30:00,
2017-12-12 08:00:00,29.1,28.1,30.47,WSW,250,0.0,0.0,96,0.00,,,0.00,16,Wunderground v.1.15,2017-12-12 16:00:00,
2017-12-12 08:30:00,29.5,28.5,30.48,WSW,250,0.0,0.0,96,0.00,,,0.00,46,Wunderground v.1.15,2017-12-12 16:30:00,
2017-12-12 09:00:00,30.0,29.0,30.49,WSW,250,0.0,0.0,96,0.00,,,0.00,93,Wunderground v.1.15,2017-12-12 17:00:00,
2017-12-12 09:30:00,31.0,30.0,30.50,North,355,0.0,0.0,96,0.00,,,0.00,111,Wunderground v.1.15,2017-12-12 17:30:00,
2017-12-12 10:00:00,31.5,30.5,30.50,NNW,331,0.0,0.0,96,0.00,,,0.00,151,Wunderground v.1.15,2017-12-12 18:00:00,
2017-12-12 10:30:00,31.6,30.6,30.50,WSW,246,0.0,0.0,96,0.00,,,0.00,232,Wunderground v.1.15,2017-12-12 18:30:00,
2017-12-12 11:00:00,32.4,31.1,30.48,WSW,241,1.0,1.0,95,0.00,,,0.01,227,Wunderground v.1.15,2017-12-12 19:00:00,
2017-12-12 11:30:00,33.8,30.6,30.48,NNW,347,1.0,1.0,88,0.00,,,0.01,105,Wunderground v.1.15,2017-12-12 19:30:00,
2017-12-12 12:00:00,34.9,31.4,30.47,NNW,339,1.0,1.0,87,0.00,,,0.01,292,Wunderground v.1.15,2017-12-12 20:00:00,
2017-12-12 12:30:00,35.8,32.0,30.46,NNW,340,1.0,1.0,86,0.00,,,0.01,306,Wunderground v.1.15,2017-12-12 20:30:00,
2017-12-12 13:30:00,35.8,30.8,30.43,NNW,348,1.0,1.0,82,0.00,,,0.01,323,Wunderground v.1.15,2017-12-12 21:30:00,
2017-12-12 14:00:00,37.3,32.6,30.42,NNW,348,0.0,0.0,83,0.00,,,0.01,366,Wunderground v.1.15,2017-12-12 22:00:00,
2017-12-12 14:30:00,39.2,32.9,30.41,NNW,348,0.0,1.0,78,0.00,,,0.01,95,Wunderground v.1.15,2017-12-12 22:30:00,
2017-12-12 15:00:00,38.5,31.9,30.41,NNW,348,0.0,0.0,77,0.00,,,0.01,70,Wunderground v.1.15,2017-12-12 23:00:00,
2017-12-12 16:00:00,36.4,30.8,30.40,NW,313,1.0,1.0,80,0.00,,,0.01,30,Wunderground v.1.15,2017-12-13 00:00:00,